Regional Weather Roundup
Issued by NWS

Home | Current Version | Previous Version | Text Only | Print | Product List | Glossary On
Versions: 1 2 3 4 5 6 7 8 9 10 11 12 13 14 15 16 17 18 19 20 21 22 23 24 25 26 27 28 29 30 31 32 33 34 35 36 37 38 39 40 41 42 43 44 45 46 47 48 49 50
000
ASCA42 TJSJ 011311
RWRPR
PUERTO RICO/U.S. VIRGIN ISLANDS HOURLY WEATHER ROUNDUP
NATIONAL WEATHER SERVICE SAN JUAN PR
900 AM AST FRI AUG 01 2014

PRZ001-004-011400-
PUERTO RICO

CITY           SKY/WX    TMP DP  RH WIND       PRES   REMARKS
SAN JUAN LMM   MOSUNNY   84  75  74 E12       29.99S HX  92
AGUADILLA      SUNNY     82  72  69 MISG      29.99S
CEIBA          MOSUNNY   84  75  74 SE15      30.02S HX  92
$$

PRZ006-007-011400-
U.S. VIRGIN ISLANDS

CITY           SKY/WX    TMP DP  RH WIND       PRES   REMARKS
CHARLOTTE AMA  PTSUNNY   86  75  70 SE10      29.99S HX  95
CHRISTIANSTED  MOSUNNY   88  73  62 E14       30.00R HX  96
$$

HOURLY WEATHER ROUNDUP FOR THE NEWS MEDIA

CITY           SKY/WX    TMP DP  RH WIND       PRES   REMARKS
MIAMI          MOSUNNY   83  76  79 SE6       29.98R HX  91
ORLANDO        SUNNY     82  75  79 S5        30.00R
NEW YORK       PTSUNNY   76  66  71 SW6       30.20S
NEWARK         PTSUNNY   76  68  76 W6        30.19R
CHICAGO        MOSUNNY   70  58  65 SW12      30.09R
HARTFORD       MOSUNNY   74  67  78 VRB3      30.21R
BOSTON         PTSUNNY   73  64  73 CALM      30.21S
DALLAS         CLOUDY    70  67  90 N6        30.04R
PHILADELPHIA   CLOUDY    76  68  76 SW6       30.19R


USA.gov is the U.S. government's official web portal to all federal, state and local government web resources and services.